STARLINK-36806, 67965

Orbit data source: Space-Track

STARLINK-36806, 67965 is a payload satellite owned by SpaceX/Seattle (US) in SSO that was launched on Wed, 25 Feb 2026 UTC via an FALCON 9 launch vehicle from the Air Force Western Test Range (AFWTR). Payload-class satellites include a variety of spacecraft equipped with specific instruments for various scientific and technological missions. These include communications satellites like Starlink; space stations such as the ISS; scientific satellites like the Hubble; Earth observation satellites from companies like Planet Labs, Umbra, and HawkEye 360; GPS; miniature CubeSats for education and research; and military/defense satellites.

Loading next visibility...
Identifier
67965, 2026-038E
Orbit
SSO
Country
Flag of USUS
Related business
Manufacturer
SpaceX/Seattle
Mission
Operational Commercial Communications
Bus & Motor
STARLINK V2MO, Unknown motor
Mass
575 kg wet, ~530 kg dry
Launch date (UTC)
2026-02-25 (4 months ago)
Launch vehicle
FALCON 9
Launch site
Air Force Western Test Range (AFWTR)
Object type
Payload
Rocket body
Debris
Shape & HBR
Box + 2 Pan, 17.7 m
Radar Cross Section
36.964 m², Large (>1 m²)

Expand to show TLE details & history
Last TLE update: 21 hours ago

TLE from 21 hours ago
0 STARLINK-36806
1 67965U 26038E   26170.98733810  .00021136  00000-0  65487-3 0  9993
2 67965  97.2837 180.6058 0002223 101.8855 258.2637 15.33458300 18910
Epoch: 2026-06-19T23:41Z
TLE epoch observation values (Epoch: 2026-06-19T23:41:46.011Z)
Latitude
-0.00006°
Longitude
-83.04434°
Altitude
468.926 km
Speed
7.632 km/s
True Right ascension
12h 02m 25s
True Declination
0° 00' 00"
Sunlit
Object was in daylight at epoch
Visualization orbit readout
Latitude
Unknown
Longitude
Unknown
Altitude
Unknown
Speed
Unknown
Apparent Right ascension
Unknown
Apparent Declination
Unknown
Sunlit
N/A
Visualization observer readout
Local Sidereal Time
07:12:14
Azimuth
Unknown
Elevation
Unknown
Doppler factor
Unknown
Orbital elements
Apogee altitude
463.967 km
Perigee altitude
460.926 km
Semi-major axis
6,840.583 km
Eccentricity
0.00022
Inclination
97.2837°
RAAN
180.6058°
Arg. of periapsis
101.8855°
True anomaly
258.23876°
Mean anomaly
258.2637°
Eccentric anomaly
258.25123°
Mean motion
3.83622 °/min
Orbital period
93.84 mins
BSTAR
0.00065487
Loading maneuver chart data...
Computing Atmospheric mass density...
Loading historical data...
Loading historical data...
Loading historical data...
Loading historical data...
Loading historical data...
Loading historical data...
Loading historical data...

Documentation

Showing up to 5 results
|